Regional Weather Roundup
Issued by NWS

Home | Current Version | Previous Version | Graphics & Text | Print | Product List | Glossary On
Versions: 1 2 3 4 5 6 7 8 9 10 11 12 13 14 15 16 17 18 19 20 21 22 23 24 25 26 27
000
ASUS45 KCYS 241010
RWRWY

WYOMING REGIONAL WEATHER ROUNDUP
NATIONAL WEATHER SERVICE CHEYENNE WY
400 AM MDT TUE MAY 24 2016

NOTE:  "FAIR" INDICATES FEW OR NO CLOUDS BELOW 12,000 FEET
WITH NO SIGNIFICANT WEATHER AND/OR OBSTRUCTIONS TO VISIBILITY.

WYZ001-241100-
YELLOWSTONE NATIONAL PARK

CITY           SKY/WX    TMP DP  RH WIND       PRES   REMARKS
LK YELLOWSTONE   N/A     27  24  89 CALM      29.95F
W YELLOWSTONE  NOT AVBL

$$
WYZ002>013-054>058-071-098>099-241100-
NORTHERN WYOMING

CITY           SKY/WX    TMP DP  RH WIND       PRES   REMARKS
JACKSON        FAIR      28  28 100 NW5       29.94R WCI  23
CODY           FAIR      37  34  87 S3        29.90R
GREYBULL       FAIR      42  33  70 SE3       29.86S
WORLAND        FAIR      37  31  78 S6        29.87R WCI  32
SHERIDAN       FAIR      37  31  78 CALM      29.90R
BUFFALO        FAIR      40  31  70 W7        29.92R
GILLETTE       FAIR      31  28  89 SW3       29.89R
HULETT         FAIR      43  32  65 E7        29.90F
NEWCASTLE      FAIR      37  27  65 CALM      29.89R

$$
WYZ014>020-022>026-101>103-241100-
CENTRAL WYOMING

CITY           SKY/WX    TMP DP  RH WIND       PRES   REMARKS
BIG PINEY      FAIR      31  26  82 E5        29.96F WCI  26
PINEDALE       FAIR      28  27  93 MISG      29.98S
DUBOIS         FAIR      32  25  74 NW14      29.94S WCI  22
LANDER         FAIR      39  27  62 SE5       29.89R
RIVERTON       FAIR      41  26  55 NW6       29.90S
CASPER         FAIR      34  29  82 W5        29.92S WCI  30
DOUGLAS        FAIR      39  34  82 CALM      29.91S

$$
WYZ021-027>030-104>119-241100-
SOUTHERN WYOMING

CITY           SKY/WX    TMP DP  RH WIND       PRES   REMARKS
EVANSTON       CLOUDY    42  30  62 E3        29.92S
KEMMERER         N/A     34  28  80 N15       29.94F WCI  24
FORT BRIDGER   CLOUDY    41  34  75 S9        29.96S
ROCK SPRINGS   FAIR      41  34  76 CALM      29.94F
DIXON          FAIR      38  32  77 NE5       29.95F WCI  35
RAWLINS        MOCLDY    36  30  79 N5        29.96S WCI  32
SARATOGA       FAIR      34  30  86 MISG      29.97F
LARAMIE        FAIR      33  31  92 S6        29.98S WCI  28
CHEYENNE       FAIR      40  35  83 W7        29.95S
TORRINGTON     FAIR      42  39  89 CALM      29.88F
PINE BLUFFS    FAIR      34  34 100 CALM      29.94S

$$




USA.gov is the U.S. government's official web portal to all federal, state and local government web resources and services.